DELTA 1 DEB, 42572

Orbit data source: Space-Track

DELTA 1 DEB, 42572 is space debris in SSO originally from a launch on Tue, 06 Nov 1973 UTC launched from the Air Force Western Test Range (AFWTR). Debris objects in space refer to the collection of defunct objects orbiting the Earth. Examples of debris include non-operational satellites, rocket bodies, and fragments generated from explosions, collisions, or faulty payload assembly.

Loading next visibility...
Identifier
42572, 1973-086HL
Orbit
SSO
Country
Flag of USUS
Related business
Manufacturer
Unknown
Mission
Spacecraft
Bus & Motor
Unknown
Mass
Unknown
Launch date (UTC)
1973-11-06 (52 years ago)
Launch vehicle
Unknown
Launch site
Air Force Western Test Range (AFWTR)
Object type
Payload
Rocket body
Debris
Shape & HBR
Unknown shape, 0.1 m
Radar Cross Section
Small (<0.1 m²)

Expand to show TLE details & history
Last TLE update: 9 months ago

TLE from 9 months ago
0 DELTA 1 DEB
1 42572U 73086HL  25131.21651797  .00000311  00000-0  12017-2 0  9992
2 42572 101.8906 136.9510 0575826  10.1322 351.0804 12.54076698888850
Epoch: 2025-05-11T05:11Z
TLE epoch observation values (Epoch: 2025-05-11T05:11:47.152Z)
Latitude
Longitude
-170.2426°
Altitude
1,005.51 km
Speed
7.555 km/s
True Right ascension
09h 07m 48s
True Declination
0° 00' 00"
Sunlit
Object was in daylight at epoch
Visualization orbit readout
Latitude
Unknown
Longitude
Unknown
Altitude
Unknown
Speed
Unknown
Apparent Right ascension
Unknown
Apparent Declination
Unknown
Sunlit
N/A
Visualization observer readout
Local Sidereal Time
02:10:34
Azimuth
Unknown
Elevation
Unknown
Doppler factor
Unknown
Orbital elements
Apogee altitude
1,895.505 km
Perigee altitude
994.549 km
Semi-major axis
7,823.164 km
Eccentricity
0.05758
Inclination
101.8906°
RAAN
136.951°
Arg. of periapsis
10.1322°
True anomaly
349.97933°
Mean anomaly
351.0804°
Eccentric anomaly
350.53803°
Mean motion
3.13667 °/min
Orbital period
114.77 mins
BSTAR
0.0012017
Loading maneuver chart data...
Computing Atmospheric mass density...
Loading historical data...
Loading historical data...
Loading historical data...
Loading historical data...
Loading historical data...
Loading historical data...
Loading historical data...

Documentation

Showing up to 5 results
|